Live-Position
3D-Globus wird geladen...
Über Starlink 3301
Group: 3 satellites
Beschreibung wird geladen...
Nächste Überflüge
Passes for default location (London). Set your location on the main map for personalized predictions.
Höhenverlauf
Loading altitude history...
No altitude history available
Zweizeiliger Elementsatz
1 50169U 21125P 26122.99751095 -.00000773 00000-0 -30502-4 0 9993
2 50169 53.2191 5.3209 0001412 88.0192 272.0962 15.08837841244800
Epoch: 2. Mai 2026 •
Age: 14 hours
Aktueller Status
Höhe 540.5 km
Geschwindigkeit 7.59 km/s
Subsatellitenpunkt 1.16°N,
118.78°E
Startdatum 18. Dez. 2021
Alter 4.3 years
Typ internet
Startgruppe
Falcon 9 •
Group 4-4 •
38 satellites
Starlink 3297
50159
Starlink 3304 50161
Starlink 3306 50163
Starlink 3298 50165
Starlink 3305 50166
Starlink 3271 50167
Starlink 3245 50170
Starlink 3286 50171
Starlink 3287 50172
Starlink 3289 50173
Starlink 3292 50174
Starlink 3291 50175
Starlink 3293 50176
Starlink 3282 50177
Starlink 3283 50179
Starlink 3265 50180
Starlink 3285 50181
Starlink 3277 50182
Starlink 3281 50183
Starlink 3279 50185
...and 17 more
Technische Details
Klassifizierung Payload
Masse 290.00 kg
Trockenmasse 270.00 kg
Gesamtmasse 290.00 kg
Länge 0.20 m
Durchmesser 2.80 m
Spannweite 9.00 m
Form Box + pan
Hersteller SPXS
Bus-Typ Starlink
Phasenstatus In Orbit
Besitzer/Staat SPXS/US
Most Searched
Loading...